Torna al catalogo

DELTA 1 DEB

AttivoPO
NORAD 12288·DEBRIS·🇺🇸 United States

Lanciato Mar 5, 1978 da Vandenberg Space Force Base

Loading…

Prossimi Passaggi (prossime 24 ore)

TLE

AggiornatoSource: Space-Track

Epoca: Sep 13, 2026, 10:41 UTC

1 12288U 78026EG  26256.44575637  .00000660  00000-0  30860-3 0  9998
2 12288  99.1949 249.2532 0076226 267.0989 256.6477 14.22507356343658

Traccia DELTA 1 DEB in tempo reale con AllMySat

Download on the App Store